�N����,����,�~����,�C��,���x,�C��,����,���ϕ���,�ő�u�ԕ���,�ő厞����,���˗�,�I�_���x,�n�����x,�ő啗���N��,DTYPE
"23/09/23","00:10",0.0,22.5,88.2,1008.1,301.4,1.0,2.0,331.8,0.00,20.5,24.7,"00:04:56",1
"23/09/23","00:20",0.0,22.4,88.2,1008.1,331.8,1.1,2.0,337.5,0.00,20.4,24.7,"00:17:44",1
"23/09/23","00:30",0.0,22.6,88.5,1008.1,335.9,1.3,2.2,334.8,0.00,20.6,24.5,"00:29:20",1
"23/09/23","00:40",0.0,22.3,88.7,1008.1,314.4,1.3,3.2,331.7,0.00,20.4,24.7,"00:30:16",1
"23/09/23","00:50",0.0,22.3,88.7,1007.8,324.0,1.7,3.4,338.6,0.00,20.4,24.7,"00:47:20",1
"23/09/23","01:00",0.0,22.4,88.7,1008.1,329.2,2.0,3.3,340.7,0.00,20.5,24.7,"00:56:48",1
"23/09/23","01:10",0.0,22.4,88.6,1008.3,332.0,2.0,3.4,340.3,0.00,20.5,24.6,"01:08:32",1
"23/09/23","01:20",0.0,22.5,88.5,1008.1,334.4,2.0,3.4,337.3,0.00,20.5,24.6,"01:13:36",1
"23/09/23","01:30",0.0,22.4,88.5,1008.3,331.0,1.5,2.8,321.0,0.00,20.4,24.6,"01:21:04",1
"23/09/23","01:40",0.0,22.4,88.5,1008.1,321.7,1.5,2.6,338.9,0.00,20.4,24.5,"01:33:04",1
"23/09/23","01:50",0.0,22.4,88.4,1008.1,316.9,1.3,2.1,333.7,0.00,20.4,24.6,"01:43:04",1
"23/09/23","02:00",0.0,22.4,88.3,1008.1,325.1,1.2,2.0,338.1,0.00,20.4,24.5,"01:50:40",1
"23/09/23","02:10",0.0,22.3,88.2,1008.3,327.7,1.6,2.9,332.7,0.00,20.3,24.5,"02:00:02",1
"23/09/23","02:20",0.0,22.3,88.0,1008.3,314.7,1.5,2.8,342.5,0.00,20.3,24.6,"02:13:28",1
"23/09/23","02:30",0.0,22.4,87.9,1008.6,325.2,1.5,2.7,328.2,0.00,20.3,24.5,"02:29:28",1
"23/09/23","02:40",0.0,22.4,87.7,1008.3,324.7,1.8,3.1,345.2,0.00,20.3,24.2,"02:32:00",1
"23/09/23","02:50",0.0,22.4,87.6,1008.3,320.0,1.3,2.7,342.0,0.00,20.3,24.5,"02:40:48",1
"23/09/23","03:00",0.0,22.3,87.6,1008.3,311.7,1.1,1.8,316.2,0.00,20.2,24.5,"02:54:56",1
"23/09/23","03:10",0.0,22.3,87.5,1008.1,325.3,1.2,2.4,327.1,0.00,20.2,24.2,"03:02:56",1
"23/09/23","03:20",0.0,22.2,87.6,1008.1,325.5,1.1,1.8,311.7,0.00,20.1,24.4,"03:16:24",1
"23/09/23","03:30",0.0,22.2,87.7,1008.3,300.0,0.7,1.7,330.7,0.00,20.1,24.3,"03:21:52",1
"23/09/23","03:40",0.0,22.1,88.0,1008.1,272.9,0.7,1.2,241.3,0.00,20.1,24.4,"03:34:00",1
"23/09/23","03:50",0.0,22.2,88.1,1008.3,281.9,0.8,2.0,321.8,0.00,20.2,24.4,"03:42:40",1
"23/09/23","04:00",0.0,22.2,88.2,1008.3,281.0,0.6,1.3,335.0,0.00,20.2,24.2,"03:55:44",1
"23/09/23","04:10",0.0,22.2,88.4,1008.3,325.4,0.8,1.9,336.0,0.00,20.2,24.3,"04:06:56",1
"23/09/23","04:20",0.0,22.1,88.8,1008.3,327.6,1.1,2.0,339.4,0.00,20.2,24.3,"04:13:12",1
"23/09/23","04:30",0.0,22.0,89.0,1008.8,322.9,0.6,1.3,319.1,0.00,20.1,24.4,"04:20:48",1
"23/09/23","04:40",0.0,21.9,89.3,1008.6,317.4,0.8,1.8,332.5,0.00,20.1,24.4,"04:33:36",1
"23/09/23","04:50",0.0,21.9,89.5,1008.8,287.8,0.6,1.2,334.8,0.00,20.1,24.1,"04:42:40",1
"23/09/23","05:00",0.0,21.8,89.6,1008.8,302.7,1.1,1.8,318.4,0.00,20.1,24.1,"04:59:52",1
"23/09/23","05:10",0.0,21.7,89.4,1008.8,323.6,1.2,1.9,301.8,0.00,19.9,24.4,"05:07:36",1
"23/09/23","05:20",0.0,21.9,88.7,1009.0,327.4,1.6,2.6,334.7,0.00,20.0,24.2,"05:16:40",1
"23/09/23","05:30",0.0,22.1,87.8,1008.8,315.3,1.3,2.5,316.2,0.00,20.0,24.2,"05:21:28",1
"23/09/23","05:40",0.0,22.2,87.0,1009.0,311.8,1.1,1.8,347.0,0.00,20.0,24.2,"05:35:20",1
"23/09/23","05:50",0.0,22.2,86.5,1009.3,317.8,1.1,1.8,333.6,0.00,19.9,24.2,"05:41:28",1
"23/09/23","06:00",0.0,22.2,86.3,1009.3,304.1,1.1,1.7,292.0,0.00,19.8,24.3,"05:53:52",1
"23/09/23","06:10",0.0,22.4,86.3,1009.3,335.7,1.3,2.0,321.8,0.00,20.0,24.2,"06:03:04",1
"23/09/23","06:20",0.0,22.1,86.1,1009.3,321.6,1.6,3.1,337.5,0.00,19.7,24.1,"06:17:36",1
"23/09/23","06:30",0.0,22.3,85.4,1009.3,328.7,1.6,2.5,344.3,0.00,19.8,23.9,"06:21:04",1
"23/09/23","06:40",0.0,22.5,84.5,1009.3,290.4,1.2,1.9,337.6,0.00,19.8,24.1,"06:32:16",1
"23/09/23","06:50",0.0,22.5,84.0,1009.3,287.4,1.0,1.6,251.8,0.00,19.7,24.1,"06:45:28",1
"23/09/23","07:00",0.0,22.5,83.7,1009.5,271.4,0.8,1.4,245.4,0.00,19.6,24.1,"06:55:28",1
"23/09/23","07:10",0.0,23.1,83.7,1009.5,322.5,0.8,1.8,341.9,0.04,20.2,24.0,"07:05:04",1
"23/09/23","07:20",0.0,23.0,83.8,1009.7,312.3,0.8,1.4,332.9,0.03,20.2,24.0,"07:11:36",1
"23/09/23","07:30",0.0,22.7,82.7,1009.5,290.1,1.1,3.4,313.3,0.03,19.6,24.2,"07:28:24",1
"23/09/23","07:40",0.0,23.3,81.0,1009.7,307.6,0.8,2.6,357.2,0.06,19.9,24.2,"07:39:52",1
"23/09/23","07:50",0.0,23.8,79.0,1009.7,333.2,1.2,2.4,338.2,0.10,20.0,24.2,"07:42:48",1
"23/09/23","08:00",0.0,24.9,75.7,1009.7,302.8,1.1,2.1,329.4,0.22,20.4,24.1,"07:53:36",1
"23/09/23","08:10",0.0,25.1,71.0,1009.5,296.5,1.0,2.2,341.8,0.15,19.5,24.1,"08:07:20",1
"23/09/23","08:20",0.0,25.1,69.7,1009.5,327.4,1.3,3.3,317.3,0.10,19.2,24.2,"08:16:08",1
"23/09/23","08:30",0.0,25.1,67.4,1009.5,3.1,1.5,3.3,49.2,0.12,18.7,24.0,"08:21:28",1
"23/09/23","08:40",0.0,25.2,67.2,1009.3,334.7,1.5,4.5,339.3,0.12,18.7,24.1,"08:34:16",1
"23/09/23","08:50",0.0,25.0,68.2,1009.5,310.2,1.1,2.9,234.2,0.07,18.8,24.2,"08:45:20",1
"23/09/23","09:00",0.0,25.2,67.9,1009.5,328.7,1.6,3.3,339.3,0.17,18.9,24.1,"08:53:12",1
"23/09/23","09:10",0.2,25.5,67.5,1009.3,315.7,1.3,2.6,335.4,0.20,19.1,24.1,"09:02:48",1
"23/09/23","09:20",0.0,25.5,66.6,1009.3,346.1,1.7,4.3,350.0,0.19,18.9,24.3,"09:14:08",1
"23/09/23","09:30",0.0,26.0,66.2,1009.3,350.3,1.1,2.7,333.3,0.21,19.2,24.2,"09:23:12",1
"23/09/23","09:40",0.0,25.7,66.7,1009.0,329.8,1.6,3.7,324.2,0.14,19.1,24.3,"09:32:48",1
"23/09/23","09:50",0.0,25.4,67.5,1009.5,336.2,1.8,3.5,332.0,0.13,19.0,24.3,"09:48:40",1
"23/09/23","10:00",0.0,25.1,69.0,1009.7,340.0,2.2,4.5,349.2,0.13,19.1,24.3,"09:56:16",1
"23/09/23","10:10",0.0,24.9,69.9,1009.5,350.8,2.1,6.2,335.9,0.13,19.1,24.2,"10:06:32",1
"23/09/23","10:20",0.0,25.1,70.2,1009.7,347.1,1.1,2.7,8.0,0.12,19.3,24.3,"10:14:40",1
"23/09/23","10:30",0.0,24.9,69.8,1009.5,10.6,1.7,3.7,350.9,0.12,19.0,24.2,"10:22:00",1
"23/09/23","10:40",0.0,25.6,68.4,1009.5,9.9,2.2,4.9,22.9,0.31,19.4,24.2,"10:33:20",1
"23/09/23","10:50",0.0,26.4,63.8,1009.3,9.1,1.7,4.9,327.1,0.33,19.0,24.6,"10:43:52",1
"23/09/23","11:00",0.0,26.7,63.6,1008.8,9.7,1.7,4.3,12.5,0.29,19.3,24.3,"10:51:36",1
"23/09/23","11:10",0.0,26.5,62.1,1008.8,18.5,2.2,5.0,42.6,0.21,18.7,24.5,"11:01:20",1
"23/09/23","11:20",0.0,26.3,61.8,1008.8,356.2,1.8,5.7,16.7,0.18,18.4,24.5,"11:11:12",1
"23/09/23","11:30",0.0,26.5,62.4,1008.3,356.2,2.1,3.9,352.4,0.24,18.8,24.6,"11:27:28",1
"23/09/23","11:40",0.0,26.4,62.5,1008.6,6.0,2.5,6.7,337.7,0.24,18.7,24.4,"11:30:40",1
"23/09/23","11:50",0.0,26.4,60.6,1008.8,342.5,2.7,7.5,327.1,0.33,18.2,24.4,"11:40:56",1
"23/09/23","12:00",0.0,27.1,59.2,1008.8,352.6,2.5,7.2,354.1,0.49,18.5,24.7,"11:58:00",1
"23/09/23","12:10",0.0,27.7,56.9,1008.8,357.8,2.1,5.6,350.8,0.46,18.4,24.8,"12:04:00",1
"23/09/23","12:20",0.0,27.8,56.4,1009.0,358.7,1.8,4.1,338.8,0.46,18.4,24.8,"12:15:36",1
"23/09/23","12:30",0.0,27.7,55.7,1009.0,352.8,2.1,5.2,351.7,0.44,18.1,24.6,"12:29:52",1
"23/09/23","12:40",0.0,27.5,56.9,1008.8,350.7,2.8,6.3,315.7,0.47,18.2,24.6,"12:33:44",1
"23/09/23","12:50",0.0,27.5,54.8,1009.0,349.7,3.0,5.9,347.2,0.47,17.6,24.9,"12:40:48",1
"23/09/23","13:00",0.0,27.7,54.4,1008.1,350.7,2.6,6.4,350.1,0.47,17.7,24.9,"12:50:02",1
"23/09/23","13:10",0.0,27.5,54.9,1008.3,334.2,2.6,6.6,312.7,0.45,17.7,24.8,"13:00:08",1
"23/09/23","13:20",0.0,28.0,53.1,1008.8,333.0,2.1,4.7,347.3,0.45,17.6,25.0,"13:15:52",1
"23/09/23","13:30",0.0,27.9,53.9,1008.6,340.9,2.3,5.2,333.9,0.43,17.7,25.1,"13:22:32",1
"23/09/23","13:40",0.0,28.0,52.9,1008.8,353.6,2.2,6.0,347.2,0.37,17.5,25.0,"13:33:20",1
"23/09/23","13:50",0.0,27.1,55.1,1008.1,343.8,3.0,6.0,350.3,0.33,17.4,25.1,"13:46:08",1
"23/09/23","14:00",0.0,26.7,53.2,1007.6,354.1,3.0,7.4,348.6,0.31,16.4,25.1,"13:59:12",1
"23/09/23","14:10",0.0,26.2,54.6,1007.6,323.9,3.4,6.5,302.9,0.25,16.4,25.1,"14:05:36",1
"23/09/23","14:20",0.0,25.9,55.1,1007.1,326.9,2.5,5.9,357.2,0.18,16.2,25.3,"14:15:44",1
"23/09/23","14:30",0.0,26.3,54.6,1007.4,344.0,1.8,3.5,15.9,0.21,16.5,25.2,"14:20:32",1
"23/09/23","14:40",0.0,25.9,55.7,1007.8,340.3,1.7,4.3,19.5,0.12,16.4,25.1,"14:33:44",1
"23/09/23","14:50",0.0,25.4,56.3,1008.1,333.5,2.5,5.6,340.8,0.16,16.1,25.2,"14:46:08",1
"23/09/23","15:00",0.0,25.9,54.3,1008.3,317.5,2.3,5.2,345.4,0.27,16.0,25.2,"14:55:44",1
"23/09/23","15:10",0.0,26.0,54.5,1008.1,336.3,2.7,4.4,340.8,0.26,16.2,25.2,"15:02:40",1
"23/09/23","15:20",0.0,26.6,54.1,1007.6,337.4,2.1,4.1,336.4,0.25,16.6,25.1,"15:17:20",1
"23/09/23","15:30",0.0,27.0,53.1,1007.6,350.1,1.7,4.5,344.3,0.21,16.7,25.2,"15:20:56",1
"23/09/23","15:40",0.0,25.6,52.6,1007.8,346.5,3.4,7.8,355.4,0.15,15.2,25.1,"15:38:16",1
"23/09/23","15:50",0.0,25.3,54.0,1008.1,332.4,3.1,5.9,343.3,0.17,15.4,25.1,"15:43:20",1
"23/09/23","16:00",0.0,25.5,53.6,1008.6,340.7,2.8,5.6,4.5,0.14,15.4,25.2,"15:50:16",1
"23/09/23","16:10",0.0,25.3,54.9,1008.6,341.3,2.3,6.3,338.8,0.10,15.6,25.3,"16:03:04",1
"23/09/23","16:20",0.0,24.8,55.3,1008.8,337.7,2.5,5.8,332.4,0.06,15.3,25.2,"16:10:08",1
"23/09/23","16:30",0.0,24.6,53.8,1009.3,4.4,1.7,4.4,349.9,0.05,14.7,25.3,"16:24:32",1
"23/09/23","16:40",0.0,24.4,54.4,1009.3,354.1,2.0,4.5,323.3,0.06,14.7,25.2,"16:36:56",1
"23/09/23","16:50",0.0,24.2,55.0,1009.3,352.8,1.7,3.2,337.2,0.04,14.6,25.1,"16:40:40",1
"23/09/23","17:00",0.0,24.3,56.5,1009.5,356.1,1.7,3.7,325.4,0.03,15.1,25.0,"16:52:08",1
"23/09/23","17:10",0.0,24.0,57.0,1009.5,344.5,1.1,2.2,18.7,0.02,15.0,25.1,"17:03:36",1
"23/09/23","17:20",0.0,23.6,59.5,1010.0,335.8,1.0,2.9,355.3,0.01,15.3,25.0,"17:18:24",1
"23/09/23","17:30",0.0,23.2,63.6,1009.3,304.3,0.8,1.9,343.6,0.00,16.0,24.9,"17:22:56",1
"23/09/23","17:40",0.0,22.6,63.4,1010.2,310.9,1.0,2.8,335.6,0.00,15.3,25.0,"17:31:28",1
"23/09/23","17:50",0.0,22.5,63.3,1010.0,300.0,1.5,3.4,320.7,0.00,15.2,24.8,"17:43:04",1
"23/09/23","18:00",0.0,22.2,64.3,1010.2,298.2,1.3,2.7,247.0,0.00,15.2,24.6,"17:53:12",1
"23/09/23","18:10",0.0,21.8,65.6,1010.7,326.1,1.1,2.9,308.3,0.00,15.1,24.7,"18:08:40",1
"23/09/23","18:20",0.0,21.5,67.9,1010.4,337.5,1.2,2.2,341.4,0.00,15.4,24.5,"18:12:24",1
"23/09/23","18:30",0.0,20.7,69.7,1010.7,316.6,0.5,1.4,345.3,0.00,15.0,24.6,"18:29:20",1
"23/09/23","18:40",0.0,20.2,71.3,1010.7,314.0,0.8,1.7,260.1,0.00,14.9,24.6,"18:37:04",1
"23/09/23","18:50",0.0,20.3,73.2,1010.7,336.6,1.3,2.1,319.3,0.00,15.4,24.6,"18:46:16",1
"23/09/23","19:00",0.0,20.1,74.1,1010.4,335.2,1.5,2.9,339.6,0.00,15.4,24.4,"18:57:28",1
"23/09/23","19:10",0.0,20.0,74.2,1010.9,333.5,1.1,2.6,344.3,0.00,15.3,24.4,"19:08:08",1
"23/09/23","19:20",0.0,20.1,74.6,1011.2,325.9,1.0,2.2,312.4,0.00,15.5,24.3,"19:18:40",1
"23/09/23","19:30",0.0,19.6,76.3,1010.9,353.3,0.7,2.2,340.6,0.00,15.4,24.3,"19:27:12",1
"23/09/23","19:40",0.0,19.2,78.2,1010.9,300.2,0.6,2.1,347.9,0.00,15.4,24.1,"19:35:28",1
"23/09/23","19:50",0.0,18.9,79.7,1010.9,322.2,1.0,1.8,338.4,0.00,15.4,24.3,"19:43:20",1
"23/09/23","20:00",0.0,18.6,81.3,1010.7,321.6,1.3,2.5,344.5,0.00,15.4,24.3,"19:56:48",1
"23/09/23","20:10",0.0,18.7,82.4,1011.4,327.6,1.2,2.7,330.0,0.00,15.7,24.2,"20:06:08",1
"23/09/23","20:20",0.0,18.7,83.0,1010.9,333.7,1.0,2.4,340.6,0.00,15.8,23.9,"20:14:24",1
"23/09/23","20:30",0.0,18.6,83.6,1011.2,321.8,1.3,2.1,328.2,0.00,15.8,24.1,"20:23:52",1
"23/09/23","20:40",0.0,18.7,84.0,1010.9,326.8,1.3,2.8,345.7,0.00,16.0,24.0,"20:32:40",1
"23/09/23","20:50",0.0,18.7,84.4,1011.2,311.3,1.2,2.4,334.3,0.00,16.1,24.2,"20:40:24",1
"23/09/23","21:00",0.0,18.8,84.5,1010.9,327.6,1.6,2.6,329.0,0.00,16.2,23.9,"20:53:20",1
"23/09/23","21:10",0.0,19.0,84.2,1011.2,326.8,1.3,2.0,329.9,0.00,16.3,23.8,"21:02:32",1
"23/09/23","21:20",0.0,19.0,84.1,1011.4,326.2,1.2,2.1,335.0,0.00,16.3,23.7,"21:10:48",1
"23/09/23","21:30",0.0,18.9,84.3,1011.6,321.5,1.3,1.9,325.2,0.00,16.2,23.7,"21:24:40",1
"23/09/23","21:40",0.0,19.1,84.8,1011.4,335.0,1.3,1.9,342.5,0.00,16.5,23.7,"21:30:02",1
"23/09/23","21:50",0.0,18.8,85.1,1011.6,314.2,1.5,2.6,315.0,0.00,16.3,23.7,"21:48:16",1
"23/09/23","22:00",0.0,18.9,85.1,1012.1,317.2,1.6,2.7,329.3,0.00,16.4,23.5,"21:52:48",1
"23/09/23","22:10",0.0,19.0,85.0,1011.6,319.7,1.1,2.0,324.8,0.00,16.5,23.5,"22:00:16",1
"23/09/23","22:20",0.0,18.9,85.1,1012.1,325.7,1.1,1.8,322.1,0.00,16.4,23.5,"22:12:40",1
"23/09/23","22:30",0.0,18.6,85.5,1011.9,313.4,1.2,1.9,325.6,0.00,16.2,23.5,"22:23:44",1
"23/09/23","22:40",0.0,18.6,85.9,1011.9,310.9,1.2,2.0,332.5,0.00,16.2,23.5,"22:31:28",1
"23/09/23","22:50",0.0,18.8,86.0,1011.9,321.6,1.0,1.9,318.4,0.00,16.4,23.3,"22:40:32",1
"23/09/23","23:00",0.0,18.4,86.2,1011.6,289.2,0.6,1.1,262.4,0.00,16.1,23.2,"22:51:52",1
"23/09/23","23:10",0.0,18.1,86.8,1011.6,345.9,0.7,1.9,339.2,0.00,15.9,23.3,"23:06:32",1
"23/09/23","23:20",0.0,18.0,87.5,1011.6,316.1,1.2,2.0,330.5,0.00,15.9,23.4,"23:10:08",1
"23/09/23","23:30",0.0,18.1,88.2,1011.6,331.7,1.5,1.9,341.9,0.00,16.2,23.2,"23:21:52",1
"23/09/23","23:40",0.0,18.0,88.7,1011.6,324.0,1.2,2.7,333.0,0.00,16.1,23.3,"23:35:12",1
"23/09/23","23:50",0.0,17.7,89.0,1011.4,299.5,1.0,1.6,307.5,0.00,15.9,23.3,"23:49:04",1
"23/09/23","24:00",0.0,17.5,89.3,1011.2,312.5,0.7,1.2,336.3,0.00,15.8,23.4,"23:55:44",1
